Wind_Speed
2 3 4 4 5 6 9 14 10 9 4 5 3 5 11 8 8 4 15 15 14 17 17 18 18 16 15 19 15 22 17 4 7 10 16 16 15 15 14 15 16 17 17 17 16 15 14 14 14
2 5 3 8 9 10 8 9 9 4 6 4 3 6 10 7 9 6 17 16 13 15 15 16 19 19 17 18 16 17 14 9 11 15 16 17 16 18 18 18 17 17 17 16 16 15 14 14 14
1 4 6 9 13 5 16 14 9 6 8 2 4 4 12 10 9 14 12 12 12 15 16 17 16 20 19 17 16 16 13 16 16 17 18 18 18 19 18 17 17 17 18 17 15 14 14 13 13
4 6 9 7 3 5 12 25 10 3 4 2 4 6 17 14 11 10 8 9 10 13 15 15 16 21 20 17 17 16 16 16 19 20 19 18 18 18 18 18 18 18 17 16 15 15 14 14 14
2 4 5 6 8 13 18 18 6 1 3 5 4 11 15 18 15 13 12 9 9 10 15 14 16 18 21 19 17 16 17 18 19 19 19 17 17 17 17 18 18 17 16 15 16 16 16 16 17
6 10 2 11 8 8 19 12 9 2 4 7 5 18 20 18 13 18 16 10 7 7 11 15 17 18 21 20 18 14 14 18 16 19 17 17 16 17 18 19 17 16 16 16 17 16 16 17 18
12 8 5 7 6 13 13 8 4 0 5 8 9 6 22 17 12 12 12 9 8 10 11 13 15 19 21 22 21 14 18 19 17 17 16 17 17 18 19 18 17 17 17 17 16 17 17 18 20
6 12 3 8 13 18 17 8 3 4 7 10 4 7 17 18 14 13 12 13 14 12 14 13 14 16 19 24 24 21 22 19 18 19 18 16 18 20 19 19 17 17 17 17 18 19 20 22 21
11 11 13 4 12 22 19 16 8 5 3 7 9 12 14 15 11 12 11 20 15 15 14 15 17 18 19 26 26 26 24 19 18 20 19 19 21 21 21 20 19 19 19 19 20 20 19 18 18
7 6 13 17 14 6 11 10 10 9 5 9 6 13 14 12 12 9 14 9 13 9 15 14 18 20 22 29 30 27 26 21 19 19 21 22 23 22 22 22 21 21 23 23 21 18 16 14 13
10 3 2 13 16 5 12 19 16 8 8 4 7 14 8 11 11 13 14 14 16 12 16 17 17 20 28 33 27 22 22 21 18 19 20 22 21 21 21 21 21 20 21 22 21 19 15 11 11
8 7 7 20 12 8 16 15 11 9 5 2 10 12 11 14 15 14 11 13 20 17 21 22 20 23 26 25 24 22 22 20 18 18 19 20 20 22 21 20 18 16 17 17 16 15 13 12 6
6 7 13 18 12 18 7 14 17 10 10 7 7 7 8 10 7 13 10 12 19 21 21 26 26 27 26 24 20 19 18 18 14 18 20 19 18 19 20 18 19 10 15 17 15 9 6 5 5
6 9 11 13 13 8 15 18 17 20 11 8 10 9 7 6 7 10 10 9 13 16 22 24 25 23 25 22 19 18 17 17 17 17 18 16 17 19 16 18 14 10 13 18 15 8 7 10 8
8 5 7 11 12 14 18 20 13 20 20 16 12 12 10 4 3 6 6 7 8 13 13 24 25 18 23 20 18 17 22 17 18 16 18 19 10 17 13 15 13 12 14 16 14 8 3 7 4
10 6 7 13 10 14 14 18 20 19 23 17 20 16 18 1 6 9 1 4 4 10 11 17 17 14 21 14 8 22 12 17 17 17 14 16 10 16 12 16 13 9 12 14 13 8 3 10 10
10 9 5 9 14 11 20 16 20 26 21 20 22 17 15 11 9 12 5 5 2 8 9 9 15 13 13 16 15 18 13 14 17 15 13 12 13 16 17 16 17 13 13 14 10 6 3 10 11
7 3 7 8 9 16 17 18 22 26 26 26 25 25 21 17 14 12 10 6 6 6 6 10 9 15 15 15 14 12 13 11 9 8 8 10 10 5 5 15 16 12 12 11 8 4 3 5 7
14 9 5 6 11 9 10 11 16 31 25 27 26 28 19 21 17 17 11 9 7 7 9 7 6 8 9 7 8 8 9 11 12 7 12 10 8 2 7 15 12 9 12 10 10 5 3 4 5
17 11 11 8 11 8 11 7 14 21 29 29 31 31 28 29 24 25 22 14 9 5 8 8 6 8 10 12 10 10 11 11 9 8 10 11 9 5 9 9 14 10 8 9 9 6 5 6 6
23 20 13 6 5 9 7 15 15 17 22 32 34 28 29 31 25 26 21 19 10 5 6 9 8 9 11 11 10 10 11 13 12 12 9 8 12 11 9 7 11 14 12 8 11 10 5 4 6
14 14 11 8 8 8 9 5 9 11 14 28 40 34 34 33 29 29 22 23 11 4 7 8 9 9 13 13 12 7 8 8 13 13 10 10 12 13 11 7 9 15 8 11 11 10 4 5 3
3 11 9 14 11 9 8 9 7 11 17 18 29 36 35 31 28 32 27 26 10 13 6 7 9 13 14 12 14 16 10 11 10 12 14 11 12 13 12 11 10 10 9 11 8 7 6 5 3
3 7 12 15 13 6 10 13 12 10 13 15 21 40 37 34 33 32 33 28 19 14 15 6 8 13 15 13 14 15 13 13 10 12 14 12 10 11 11 12 14 13 11 10 9 7 5 4 3
16 9 2 4 4 8 11 6 7 10 18 18 15 26 36 39 37 36 37 33 29 17 16 13 6 9 14 14 13 16 17 16 13 12 13 14 11 9 9 10 12 13 12 10 9 9 8 8 8
12 5 6 5 3 8 11 3 6 11 14 7 14 21 33 40 39 40 35 35 33 24 21 15 10 4 12 14 16 17 18 17 15 13 13 11 12 12 13 7 11 13 13 13 13 12 10 8 9
12 12 8 13 14 2 2 2 6 7 13 8 11 16 19 26 38 44 35 35 32 33 24 20 12 6 10 12 16 18 17 18 17 16 14 15 9 7 9 11 11 8 11 13 12 12 11 9 7
5 11 7 4 1 2 2 2 1 9 9 11 14 14 11 18 26 37 36 36 32 33 25 24 16 10 9 12 14 15 19 22 21 21 14 12 12 11 7 8 9 8 11 12 12 11 10 10 8
10 1 1 1 3 4 1 2 6 8 12 8 14 13 11 11 17 27 37 38 38 32 25 22 22 18 14 15 15 16 15 22 21 21 20 15 14 13 14 10 11 8 8 7 7 9 11 11 10
13 15 13 5 2 3 2 4 4 13 8 13 16 15 19 12 14 25 41 25 31 32 33 27 24 26 19 17 17 17 18 20 20 20 21 19 16 17 16 14 14 12 10 7 9 10 12 12 12
Wind_Direction
65 3 324 225 150 123 88 119 116 134 144 60 149 159 154 162 179 203 167 152 155 157 165 172 172 171 160 162 147 144 173 133 144 148 147 141 138 134 130 127 122 120 120 116 115 115 115 112 107
279 340 296 171 148 115 80 144 165 105 50 156 140 111 179 181 215 191 163 163 156 165 171 172 171 168 161 156 158 160 163 162 147 140 134 141 133 129 129 126 124 119 117 113 112 112 108 104 102
55 39 92 97 144 103 130 143 148 110 98 77 10 100 132 131 135 160 160 156 166 175 181 178 170 171 164 160 154 149 155 153 142 135 133 132 131 129 127 121 122 118 114 114 114 113 110 106 103
110 114 261 75 182 210 161 142 160 109 123 41 22 102 113 107 119 118 124 137 164 180 186 183 180 174 171 157 145 148 146 147 137 133 131 134 130 126 121 124 117 113 114 116 118 113 110 106 103
107 64 120 59 92 167 159 155 166 96 81 48 14 138 118 112 119 103 84 95 139 172 189 187 182 175 176 164 150 132 143 149 142 133 130 130 133 124 123 117 113 114 114 116 113 113 111 112 111
285 260 267 152 132 142 147 192 226 256 57 56 127 134 113 118 107 92 75 74 130 140 176 180 177 170 175 166 154 139 148 157 146 133 134 132 131 127 120 116 115 114 115 114 113 113 116 117 109
308 164 255 177 92 138 147 174 135 357 77 68 100 142 122 140 94 94 70 55 130 141 149 163 168 165 167 168 169 150 141 146 149 136 138 137 133 128 119 116 115 117 117 117 113 113 115 113 111
144 152 223 104 102 91 138 141 186 13 80 98 22 141 120 130 102 87 82 63 104 122 133 136 145 164 163 161 160 156 148 148 145 144 145 140 130 125 122 119 121 123 120 114 113 115 114 111 115
337 91 175 108 136 106 114 152 136 83 77 85 96 111 122 109 101 81 67 79 85 110 126 140 145 151 158 164 162 155 148 144 149 150 148 141 142 134 127 127 129 127 119 118 118 119 116 116 120
329 121 167 183 142 110 120 156 165 156 136 128 89 130 97 88 80 67 86 54 48 120 124 140 147 150 151 157 158 156 159 150 158 151 152 151 150 139 135 135 135 129 127 122 116 112 111 119 101
336 177 229 188 157 153 143 150 164 184 161 36 45 152 148 95 94 73 73 80 77 113 113 130 144 146 152 157 154 161 150 148 154 158 156 157 151 141 135 141 141 141 141 133 135 133 133 139 118
11 111 121 162 162 140 137 154 157 190 143 84 51 98 112 131 107 72 61 74 84 102 113 117 128 131 144 151 140 140 149 160 156 151 157 163 155 145 144 150 144 146 142 146 139 142 142 108 114
37 90 128 186 165 134 86 144 166 170 167 115 119 127 115 101 101 86 79 93 96 95 121 118 123 125 124 127 136 144 156 157 146 158 166 168 161 151 151 154 143 160 158 160 157 168 150 138 200
36 126 149 109 138 157 131 141 152 147 154 110 157 181 177 101 42 90 99 110 119 109 107 122 130 119 127 128 132 143 170 146 160 164 182 181 170 160 163 161 165 154 171 169 167 174 192 210 262
90 120 150 154 139 130 150 150 169 169 143 181 192 197 214 215 135 142 98 105 100 132 137 116 118 130 145 152 153 161 149 163 173 195 185 170 169 180 178 174 163 152 162 160 161 181 279 313 271
113 84 149 185 182 165 150 159 165 166 157 166 190 203 220 243 190 151 312 326 117 140 140 143 157 156 164 168 160 153 165 174 178 188 173 176 190 177 196 196 169 173 175 171 164 180 246 328 7
73 141 192 186 216 223 206 203 192 175 181 173 174 203 213 230 205 190 225 330 84 164 146 166 151 154 160 176 179 164 160 190 171 170 170 167 162 182 197 179 170 186 183 189 189 183 32 340 3
148 221 197 173 223 201 222 224 214 194 185 190 185 197 214 221 215 221 225 274 338 205 170 162 153 157 154 171 155 168 161 171 166 159 167 166 175 159 188 187 177 172 189 203 216 249 341 6 27
248 294 240 200 257 223 221 230 224 210 209 197 193 193 193 224 222 243 221 254 301 233 204 204 165 152 137 139 165 174 163 173 173 191 187 178 183 150 161 170 180 183 207 197 253 265 282 322 31
234 252 249 219 235 235 215 237 219 224 215 209 203 203 207 207 225 237 233 241 280 285 235 231 184 166 167 169 177 184 173 174 179 186 194 170 163 145 119 155 190 178 169 181 231 250 264 352 16
226 255 232 244 224 227 260 270 246 232 221 222 213 204 206 197 206 213 227 227 258 253 263 237 232 203 198 199 206 212 179 172 178 175 196 166 170 172 171 191 197 202 195 200 228 230 261 326 1
210 257 214 215 203 212 233 280 289 249 242 223 216 226 225 202 201 204 218 222 234 235 269 258 233 223 224 202 211 215 185 169 189 183 192 177 179 180 185 184 136 149 185 226 214 218 221 258 294
261 183 258 231 237 216 236 248 288 270 251 250 224 205 211 211 205 211 222 233 221 231 268 246 258 225 224 217 204 212 214 205 197 180 177 196 180 186 176 175 176 190 202 211 214 211 215 236 286
270 211 253 222 221 264 254 238 285 291 295 271 251 222 218 212 208 205 226 234 223 207 223 250 268 251 233 220 218 209 216 209 210 196 185 182 209 195 190 190 195 202 211 211 218 216 229 247 272
222 261 269 191 182 231 220 206 257 271 293 299 259 232 220 211 215 206 221 230 228 212 216 216 241 258 244 238 220 224 212 216 218 189 207 211 203 225 213 214 223 217 224 225 233 237 233 240 255
212 281 261 212 206 253 267 233 274 289 303 296 266 231 229 221 225 216 221 239 231 221 219 202 212 280 247 240 226 216 222 226 212 214 216 217 215 222 228 246 260 252 240 237 241 243 244 256 265
238 259 264 313 281 251 197 258 276 320 319 284 217 244 238 235 243 225 225 214 228 226 230 222 207 240 253 228 234 231 221 220 216 209 212 224 233 234 212 228 245 256 249 234 231 242 250 242 242
256 235 267 272 180 191 227 206 244 344 322 243 247 263 264 232 240 222 214 224 218 226 224 211 208 208 243 226 231 235 228 216 219 222 228 241 246 223 222 230 239 227 244 230 226 236 236 237 239
236 281 34 319 55 147 151 277 1 321 293 262 255 289 287 257 237 209 209 221 226 229 227 229 220 217 217 239 233 233 225 222 226 224 232 236 234 231 230 231 242 249 237 237 231 232 238 240 237
100 49 44 47 38 97 130 240 303 320 315 302 295 289 292 245 208 201 206 210 211 225 225 234 234 219 210 234 237 234 227 221 224 220 224 227 222 220 224 228 236 235 234 224 214 233 236 231 238
Height
3168 3167 3168 3169 3172 3168 3169 3171 3170 3170 3170 3170 3171 3169 3170 3170 3170 3173 3171 3172 3173 3175 3176 3178 3179 3181 3183 3185 3187 3189 3192 3192 3192 3190 3190 3193 3195 3196 3198 3198 3199 3200 3200 3200 3200 3201 3201 3201 3201
3167 3169 3168 3168 3170 3170 3172 3171 3171 3171 3170 3170 3171 3171 3169 3169 3169 3168 3171 3171 3173 3174 3176 3177 3178 3181 3184 3187 3189 3191 3193 3192 3192 3191 3192 3195 3196 3197 3199 3200 3201 3201 3201 3202 3202 3202 3202 3202 3202
3170 3169 3170 3169 3171 3173 3172 3173 3171 3172 3171 3172 3170 3170 3169 3169 3169 3169 3171 3171 3172 3173 3175 3176 3179 3182 3185 3187 3189 3192 3194 3194 3193 3193 3194 3196 3198 3199 3200 3202 3203 3204 3204 3204 3204 3204 3203 3204 3204
3173 3174 3173 3174 3174 3175 3175 3173 3170 3170 3172 3172 3170 3170 3169 3170 3171 3171 3170 3170 3171 3172 3174 3176 3180 3183 3186 3189 3191 3193 3194 3195 3196 3197 3198 3200 3201 3202 3203 3204 3205 3206 3206 3206 3207 3206 3206 3206 3207
3174 3174 3175 3175 3173 3171 3176 3175 3174 3173 3174 3172 3171 3169 3169 3171 3173 3172 3171 3171 3171 3172 3174 3176 3179 3182 3185 3189 3191 3192 3194 3195 3197 3199 3201 3202 3205 3205 3206 3207 3207 3208 3209 3210 3209 3209 3209 3209 3209
3171 3176 3177 3175 3176 3177 3178 3176 3175 3175 3174 3173 3171 3169 3170 3174 3175 3173 3172 3171 3171 3172 3173 3176 3178 3182 3185 3189 3192 3193 3193 3196 3199 3201 3204 3206 3207 3207 3208 3208 3209 3210 3211 3211 3211 3212 3213 3212 3211
3171 3172 3175 3176 3176 3176 3176 3177 3177 3176 3176 3174 3173 3172 3172 3174 3174 3173 3173 3172 3170 3172 3174 3176 3179 3182 3185 3188 3191 3193 3194 3197 3200 3202 3205 3207 3207 3208 3209 3211 3211 3213 3213 3214 3215 3217 3217 3215 3215
3167 3169 3171 3173 3174 3174 3175 3177 3178 3177 3176 3176 3176 3173 3173 3175 3176 3176 3175 3173 3173 3173 3175 3178 3180 3182 3185 3188 3191 3194 3196 3199 3201 3202 3206 3208 3210 3211 3210 3212 3214 3215 3216 3217 3219 3219 3219 3218 3218
3168 3168 3170 3170 3171 3176 3176 3178 3178 3178 3176 3177 3176 3176 3177 3176 3177 3179 3179 3177 3176 3176 3178 3179 3179 3182 3185 3189 3192 3195 3197 3200 3202 3204 3206 3209 3209 3209 3211 3212 3215 3217 3218 3220 3220 3220 3221 3221 3220
3169 3170 3168 3174 3173 3176 3175 3174 3177 3177 3177 3177 3177 3177 3180 3179 3179 3182 3181 3179 3178 3176 3176 3179 3181 3183 3187 3189 3193 3195 3198 3200 3204 3206 3207 3208 3209 3210 3211 3214 3216 3217 3218 3219 3222 3223 3224 3223 3222
3172 3171 3170 3170 3173 3175 3174 3175 3174 3175 3176 3178 3179 3178 3181 3181 3184 3185 3183 3182 3180 3178 3177 3179 3182 3184 3187 3191 3194 3197 3200 3203 3206 3208 3210 3210 3211 3213 3215 3216 3218 3219 3219 3221 3221 3222 3222 3223 3222
3173 3171 3169 3169 3170 3172 3174 3175 3176 3178 3178 3179 3180 3180 3182 3184 3186 3187 3187 3186 3185 3181 3180 3182 3184 3186 3190 3195 3197 3200 3202 3204 3208 3211 3212 3213 3214 3214 3215 3217 3220 3221 3222 3224 3224 3223 3223 3224 3224
3172 3172 3172 3174 3174 3174 3174 3174 3176 3179 3178 3180 3180 3180 3182 3184 3186 3186 3189 3189 3188 3187 3186 3187 3190 3192 3195 3199 3201 3203 3205 3207 3211 3213 3213 3212 3216 3218 3217 3219 3221 3223 3223 3224 3226 3224 3227 3226 3219
3173 3174 3175 3175 3174 3175 3175 3178 3177 3178 3179 3179 3181 3183 3183 3185 3187 3188 3191 3192 3193 3193 3192 3192 3195 3198 3200 3202 3203 3205 3207 3210 3212 3213 3212 3214 3217 3219 3219 3219 3222 3224 3224 3226 3228 3224 3222 3214 3223
3174 3176 3176 3175 3175 3177 3178 3178 3177 3176 3179 3179 3181 3184 3185 3187 3189 3192 3194 3195 3196 3197 3197 3199 3200 3202 3203 3204 3206 3207 3209 3211 3212 3212 3211 3215 3219 3222 3221 3222 3223 3226 3226 3227 3227 3225 3224 3224 3222
3176 3177 3176 3174 3174 3177 3177 3179 3178 3178 3180 3183 3183 3184 3183 3188 3190 3193 3195 3199 3199 3199 3199 3201 3204 3205 3206 3208 3209 3210 3211 3213 3214 3213 3215 3216 3219 3221 3222 3223 3225 3227 3228 3228 3228 3227 3229 3230 3229
3177 3175 3174 3174 3174 3175 3176 3177 3178 3178 3179 3182 3184 3184 3185 3187 3189 3192 3195 3198 3201 3201 3201 3202 3205 3207 3208 3209 3209 3210 3212 3211 3214 3215 3216 3218 3218 3220 3224 3225 3224 3226 3229 3228 3228 3230 3232 3231 3228
3174 3175 3173 3173 3173 3172 3174 3175 3175 3178 3178 3180 3182 3183 3184 3186 3189 3191 3193 3197 3200 3202 3202 3203 3206 3208 3208 3210 3209 3211 3212 3212 3213 3214 3215 3219 3223 3223 3223 3226 3226 3227 3230 3229 3230 3233 3234 3233 3231
3176 3174 3173 3173 3171 3173 3173 3172 3173 3176 3178 3178 3181 3184 3184 3184 3188 3189 3192 3195 3199 3201 3202 3205 3207 3207 3207 3209 3210 3211 3212 3213 3215 3214 3217 3219 3221 3223 3224 3226 3229 3229 3230 3230 3231 3234 3233 3233 3231
3172 3172 3172 3172 3171 3173 3172 3172 3172 3173 3174 3178 3178 3181 3185 3186 3186 3186 3190 3192 3197 3199 3201 3204 3206 3207 3209 3211 3212 3212 3214 3214 3214 3215 3216 3220 3221 3223 3224 3225 3228 3229 3229 3230 3232 3234 3235 3232 3230
3169 3168 3170 3171 3170 3172 3171 3168 3168 3169 3171 3174 3175 3178 3182 3185 3187 3186 3187 3191 3196 3198 3200 3202 3205 3207 3209 3211 3212 3213 3214 3214 3215 3217 3217 3220 3223 3225 3226 3227 3228 3227 3229 3231 3233 3234 3234 3231 3230
3168 3167 3170 3169 3170 3168 3168 3167 3165 3165 3167 3167 3171 3174 3178 3181 3185 3186 3187 3190 3195 3198 3200 3202 3203 3205 3208 3210 3212 3214 3215 3216 3217 3217 3217 3220 3223 3226 3227 3226 3225 3227 3230 3233 3234 3234 3233 3232 3232
3162 3163 3166 3166 3165 3166 3167 3168 3162 3163 3162 3162 3165 3168 3174 3178 3180 3184 3187 3191 3196 3198 3201 3203 3203 3204 3206 3209 3211 3214 3215 3216 3216 3218 3219 3220 3222 3224 3226 3226 3226 3227 3231 3234 3234 3233 3231 3230 3230
3162 3164 3164 3165 3167 3167 3166 3167 3160 3161 3162 3163 3165 3167 3170 3175 3178 3182 3186 3190 3194 3196 3198 3201 3203 3203 3205 3208 3210 3212 3213 3216 3217 3219 3219 3220 3220 3223 3224 3226 3227 3229 3231 3232 3233 3233 3232 3230 3229
3158 3160 3162 3166 3168 3164 3161 3160 3158 3158 3159 3159 3160 3163 3166 3171 3176 3180 3183 3186 3190 3192 3196 3199 3202 3202 3204 3206 3208 3210 3212 3214 3217 3218 3220 3220 3221 3221 3223 3225 3226 3226 3227 3228 3228 3230 3230 3228 3228
3155 3158 3159 3163 3164 3159 3159 3157 3156 3156 3156 3153 3155 3159 3163 3168 3172 3176 3179 3181 3185 3190 3195 3196 3201 3202 3203 3205 3208 3209 3211 3213 3215 3217 3218 3219 3220 3222 3221 3222 3222 3224 3224 3225 3226 3227 3228 3228 3227
3153 3155 3157 3156 3154 3156 3158 3157 3156 3156 3155 3154 3152 3156 3158 3161 3165 3170 3176 3177 3181 3186 3190 3194 3197 3199 3200 3202 3204 3206 3208 3210 3212 3214 3217 3218 3219 3219 3219 3220 3221 3222 3222 3222 3222 3223 3226 3226 3225
3151 3154 3154 3154 3156 3156 3155 3155 3154 3154 3152 3150 3150 3153 3152 3152 3156 3162 3170 3174 3177 3181 3185 3190 3193 3195 3199 3200 3202 3204 3206 3207 3209 3211 3213 3215 3217 3217 3218 3219 3220 3219 3219 3219 3220 3221 3221 3222 3222
3150 3151 3152 3153 3154 3155 3159 3155 3153 3150 3149 3148 3148 3147 3147 3147 3149 3156 3165 3172 3174 3176 3181 3184 3189 3192 3195 3197 3199 3201 3202 3204 3206 3208 3210 3212 3213 3214 3216 3216 3218 3218 3218 3217 3218 3219 3219 3219 3219
3148 3151 3152 3152 3155 3153 3154 3152 3150 3148 3147 3145 3145 3144 3142 3145 3147 3152 3158 3164 3170 3173 3176 3179 3184 3188 3190 3193 3195 3197 3199 3200 3202 3205 3206 3208 3210 3211 3212 3213 3214 3215 3215 3215 3216 3216 3216 3216 3215